Location: Aldenham
(51.6667°N, 0.3500°W)
Time: 17:26:52
(UTC+00:00)

Cosmos 2026 Rocket - Pass Details

Date: 18 November 2025
Orbit: 938 x 1000 km, 82.9° (Epoch: 09 December)

Event Time Altitude Azimuth Distance (km) Brightness Sun altitude
Rises 18:12:00 0° 351° (N) 3,615 7.0 -19.0°
Reaches altitude 10° 18:14:33 10° 356° (N) 2,670 6.3 -19.4°
Maximum altitude 18:20:33 57° 75° (ENE) 1,109 3.9 -20.3°
Drops below altitude 10° 18:26:34 10° 154° (SSE) 2,683 6.1 -21.2°
Sets 18:29:08 0° 158° (SSE) 3,634 6.8 -21.6°
